Theta_e
293 295 297 298 299 301 303 306 309 314 316 317 321 321 320 320 320 320 320 319 318 306 304 303 298 299 297 297 298 299 298 296 288 285 285 285 284 284 285 285 285 288 287
293 295 296 297 298 299 302 305 309 311 315 314 315 316 318 318 318 318 313 309 304 300 297 296 294 295 293 294 294 293 293 294 290 285 285 285 283 284 284 282 283 286 283
292 294 294 296 296 296 298 301 306 308 312 311 310 305 304 302 300 299 301 299 297 295 295 293 292 291 289 289 289 288 289 290 289 287 284 285 283 284 282 281 283 283 280
292 293 293 294 295 294 295 298 299 300 310 309 306 301 300 298 296 295 293 291 291 290 290 290 289 288 287 287 286 286 286 286 287 285 283 282 281 282 282 280 279 282 279
290 291 292 292 292 292 292 293 293 293 295 295 295 295 296 295 293 292 291 289 288 287 287 286 286 285 286 286 286 285 286 285 284 283 281 280 280 279 279 279 278 280 278
289 288 290 290 289 288 289 289 290 289 289 289 288 288 289 290 291 290 289 286 286 285 284 284 285 285 286 287 287 287 286 284 282 282 281 279 278 277 278 277 277 277 277
286 288 289 287 286 286 286 287 287 288 288 287 287 286 285 287 289 288 286 285 284 284 284 284 283 284 284 284 284 284 284 285 284 283 279 278 276 276 277 276 275 275 275
287 287 287 286 285 285 285 285 286 287 286 287 286 286 285 286 287 287 285 284 283 283 283 282 281 281 281 280 280 279 278 278 278 278 277 276 276 276 276 276 274 274 275
285 285 285 285 285 284 284 285 285 285 285 286 286 286 285 285 287 286 284 282 282 281 282 281 281 280 282 282 280 278 278 278 281 281 280 279 277 277 275 275 273 273 272
282 283 284 284 284 283 284 284 284 285 284 285 285 285 285 284 287 286 285 283 281 280 281 281 282 281 282 283 280 278 276 276 275 274 273 273 273 273 273 272 272 271 270
283 283 283 284 284 283 283 284 284 284 284 283 283 283 283 284 284 285 284 282 281 280 280 281 282 282 281 280 281 278 276 275 274 272 271 271 271 270 270 270 270 271 270
282 282 282 283 283 283 282 282 282 282 281 281 281 282 283 284 285 286 285 284 283 281 280 281 282 282 280 280 279 280 278 275 273 271 270 269 269 269 268 269 269 269 270
281 281 282 282 282 282 282 281 281 282 281 280 280 280 281 283 284 285 285 284 283 280 281 281 281 281 280 279 279 277 273 272 271 270 269 268 268 268 268 268 268 268 268
282 281 282 282 283 283 283 282 282 282 281 281 281 280 281 281 282 282 281 281 282 281 281 279 277 276 276 274 273 272 272 272 271 270 268 268 268 267 267 268 267 267 267
282 282 282 282 282 282 283 283 282 283 283 282 281 282 281 280 281 281 281 280 281 279 278 276 273 271 270 270 269 269 269 270 269 268 267 267 267 267 266 267 266 266 266
282 282 281 283 282 282 282 282 285 285 285 284 283 283 282 283 284 282 282 282 281 279 275 273 272 271 270 269 268 268 268 267 267 267 267 267 266 266 265 266 266 265 265
281 280 280 280 281 282 282 282 280 283 284 284 284 283 284 284 283 282 282 282 281 277 274 273 272 271 270 269 268 268 267 267 267 267 267 266 265 265 265 264 264 264 264
280 275 281 281 281 281 280 280 280 281 280 280 283 283 284 284 283 282 282 281 275 273 274 273 272 271 270 269 269 268 266 265 266 265 265 265 264 264 263 263 263 261 262
279 280 279 279 279 278 278 279 279 280 280 280 280 282 283 284 283 282 282 278 273 272 272 272 272 271 270 269 268 267 266 266 265 264 264 263 263 263 263 262 262 257 258
275 273 274 277 276 277 278 278 278 279 279 278 280 280 281 282 281 280 278 276 274 272 270 270 270 269 269 268 267 265 265 264 263 263 263 263 262 263 262 261 261 261 261
277 276 274 276 277 277 277 277 278 278 278 278 280 280 282 282 281 281 277 276 275 273 271 270 268 268 267 266 266 265 264 264 264 263 263 262 261 261 261 261 261 259 259
278 277 275 276 277 276 276 277 277 277 277 278 278 278 281 281 281 280 278 277 275 273 271 270 268 267 266 266 265 265 264 263 263 262 262 260 260 260 259 260 259 259 259
277 276 275 275 275 272 273 274 275 275 276 276 277 276 278 280 280 278 277 275 272 269 268 268 266 264 264 265 265 265 264 263 263 263 261 260 259 260 259 260 259 258 259
278 277 276 275 273 273 274 273 273 271 274 274 274 275 276 278 278 276 274 271 268 266 265 264 264 263 263 263 263 264 263 262 261 261 261 260 260 257 259 258 258 257 257
277 277 276 275 274 272 273 272 272 272 273 273 273 273 273 274 275 273 269 266 264 263 263 263 263 262 261 261 261 261 260 259 259 258 258 259 259 258 257 257 257 258 258
277 277 276 275 274 273 273 273 272 272 271 271 271 271 271 270 270 267 264 263 262 261 262 262 262 262 261 261 261 260 257 259 256 255 258 259 258 258 257 257 257 258 259
Wind_Speed
15 14 14 12 15 14 12 11 12 11 13 17 16 16 15 17 17 17 16 14 14 10 8 10 9 10 6 5 6 5 7 7 9 5 4 6 3 7 4 4 4 4 6
17 14 13 13 11 14 13 10 11 12 10 13 6 4 10 11 12 16 13 11 13 12 11 12 13 9 11 8 8 9 8 9 13 14 6 4 4 6 5 4 5 3 6
16 15 14 13 11 11 14 13 12 12 12 7 5 5 5 7 7 8 6 11 10 12 13 15 14 11 13 10 8 9 9 7 8 9 5 4 3 4 4 3 5 6 6
15 13 13 13 11 10 12 12 9 11 10 5 7 5 9 7 9 12 13 13 12 14 14 13 14 13 12 12 10 11 9 7 10 9 8 6 4 3 2 4 3 3 4
14 12 11 13 11 10 8 11 7 6 6 8 10 10 6 12 9 12 12 14 15 16 16 16 14 14 19 13 8 8 11 9 8 8 7 5 5 4 3 1 3 5 5
12 11 11 10 10 9 8 8 6 5 4 12 13 9 12 7 25 26 19 13 15 16 14 18 15 17 19 24 22 19 13 11 10 7 7 7 7 6 3 2 3 3 2
11 11 9 8 7 7 7 5 7 4 4 10 16 17 14 12 30 30 25 15 15 14 16 15 14 10 15 17 24 26 23 20 12 8 10 8 7 4 4 3 4 3 3
9 9 9 7 6 6 6 5 6 5 5 3 17 17 18 15 27 33 29 19 17 14 14 13 15 13 11 13 15 16 15 14 13 10 12 10 9 6 5 4 4 4 4
8 8 7 7 6 4 5 4 4 4 8 4 10 14 21 17 31 31 25 17 16 14 12 12 11 13 19 20 15 16 15 15 19 24 22 20 17 13 6 3 3 3 2
7 7 6 5 5 5 6 6 6 5 8 8 9 12 16 18 26 27 21 14 15 11 10 12 15 13 17 17 13 13 14 12 12 12 10 11 11 12 12 7 3 4 3
7 6 6 6 6 6 7 6 6 6 9 11 13 13 14 15 18 24 22 13 12 10 10 9 8 18 17 18 15 11 13 12 13 9 7 6 6 7 6 6 6 4 3
6 7 8 9 8 6 9 8 9 7 11 12 12 12 10 12 16 19 20 17 16 11 10 9 10 18 18 18 13 20 19 13 7 7 6 5 5 5 5 5 5 5 6
5 6 8 9 9 10 10 9 9 9 9 9 8 9 9 8 9 21 22 21 19 12 10 16 22 20 21 17 20 19 11 7 7 6 6 5 5 4 4 4 4 5 5
7 7 6 8 10 9 8 8 8 8 8 8 8 8 8 8 8 8 8 11 19 13 21 12 14 14 14 13 10 9 6 5 5 6 6 6 5 4 4 2 3 2 1
7 7 8 7 9 9 10 8 7 7 7 7 6 6 7 7 6 10 10 8 8 12 13 9 8 7 6 6 6 6 6 5 6 6 6 5 4 4 4 3 3 2 1
5 5 5 5 6 5 7 8 15 12 15 14 11 6 4 9 15 15 15 16 21 20 6 7 6 6 6 6 6 5 5 5 5 5 5 5 4 4 3 2 2 0 2
3 3 3 4 3 4 5 5 7 8 12 9 8 9 12 14 16 17 18 20 18 9 5 5 6 6 6 5 5 4 5 4 5 5 5 5 4 4 2 1 2 2 2
2 1 1 2 2 2 2 3 4 5 6 4 5 7 13 14 13 14 17 14 5 2 2 4 4 5 5 5 5 5 5 5 5 5 5 5 4 3 3 2 0 2 3
3 2 2 2 3 3 3 4 4 5 5 6 4 4 8 14 12 13 16 5 4 3 3 4 4 5 5 5 5 5 6 5 5 5 5 4 4 4 3 1 1 1 2
5 5 4 4 3 4 4 4 4 4 6 6 6 6 5 8 7 7 5 5 5 4 3 3 4 4 5 6 6 6 6 6 6 5 4 4 4 3 3 2 1 3 3
4 5 5 5 5 5 5 5 4 4 4 4 5 5 11 8 9 8 6 5 5 5 5 5 6 6 6 7 7 7 7 6 6 5 5 4 4 4 2 1 2 2 3
6 6 6 6 5 5 5 4 4 5 5 5 5 6 15 7 7 7 7 7 6 6 6 7 7 7 7 7 8 7 7 7 6 6 5 4 3 3 2 1 1 2 3
7 7 6 5 5 5 5 5 5 6 6 6 6 6 7 8 7 7 7 6 6 5 5 6 7 6 6 6 6 6 7 7 7 6 6 5 3 2 2 1 1 2 3
8 8 8 7 6 6 6 6 6 6 6 6 6 6 7 7 8 7 6 6 6 6 5 5 6 8 8 7 6 5 5 6 5 6 6 5 3 3 2 2 2 4 5
8 8 8 7 7 7 7 7 7 7 7 6 6 6 6 6 6 5 6 6 6 7 7 6 6 9 10 10 9 9 8 10 7 7 4 4 3 4 2 2 3 5 7
8 7 6 6 6 6 5 5 6 5 6 5 5 4 4 5 5 6 7 7 7 6 8 6 8 11 12 9 9 10 9 10 8 7 5 4 4 4 4 5 7 6 7
Wind_Direction
302 301 285 287 296 278 268 274 270 265 276 273 207 204 201 203 202 202 206 197 193 162 156 149 131 131 117 103 96 97 98 107 124 105 88 126 95 107 95 99 78 104 88
303 302 289 288 295 293 287 276 281 278 248 255 309 234 198 209 204 210 182 172 159 152 138 127 122 119 95 101 97 83 89 105 124 113 156 100 85 99 98 84 99 119 86
304 305 300 296 301 302 301 297 285 276 270 268 262 170 134 114 103 81 119 129 127 128 130 126 113 116 108 94 81 83 88 83 100 127 104 114 107 140 121 128 138 125 90
305 303 302 306 315 313 309 303 311 326 266 220 207 133 117 111 99 101 105 100 98 99 97 95 99 103 102 105 100 102 95 91 94 99 103 106 103 100 123 162 144 142 102
308 308 317 317 322 316 329 312 319 347 345 89 53 78 77 107 104 110 106 103 103 100 89 92 74 86 87 95 107 110 107 110 107 117 116 120 112 129 176 155 136 139 91
308 313 321 323 329 332 333 334 330 46 33 78 82 51 72 89 107 101 102 98 94 96 100 90 90 87 94 91 88 87 96 115 122 114 120 122 111 115 123 112 109 152 146
311 314 326 333 335 342 340 3 307 74 81 111 103 93 69 89 103 101 96 93 95 94 91 94 94 89 92 98 93 84 75 77 74 105 114 105 117 115 124 101 71 77 85
313 322 337 336 345 360 354 12 328 36 69 104 105 101 106 94 95 98 94 92 88 88 92 103 103 101 101 102 93 86 78 73 76 84 88 86 88 86 81 80 72 91 102
335 336 343 339 344 26 30 18 10 43 78 76 101 122 120 117 111 106 102 100 97 92 97 96 103 112 117 115 107 103 98 91 88 90 90 88 81 73 76 112 80 125 95
344 346 356 357 8 43 43 43 49 48 88 84 91 91 104 107 114 114 117 116 112 109 97 93 97 103 108 112 105 109 105 111 108 99 91 81 76 71 65 60 65 98 119
358 16 32 34 39 37 61 49 70 79 88 88 83 83 87 92 97 100 100 101 110 111 109 109 112 114 115 112 108 112 120 126 114 106 101 92 80 68 61 53 45 47 94
24 39 51 54 51 48 58 49 55 71 73 72 79 77 78 88 96 98 99 98 110 112 106 106 114 115 109 105 108 119 119 113 112 108 106 97 87 79 69 62 62 63 52
40 52 61 62 60 58 58 57 57 60 68 66 72 83 81 78 88 100 101 103 103 100 107 115 113 109 106 103 110 110 110 114 120 121 117 103 89 90 107 92 82 80 81
46 59 79 82 73 66 66 57 66 59 72 73 76 77 72 76 83 89 92 108 110 112 113 102 109 109 106 102 102 100 104 112 117 119 114 110 111 107 88 71 84 125 103
65 52 55 57 81 76 70 63 69 59 70 87 79 94 111 104 108 124 130 131 118 119 117 114 115 110 114 111 100 103 105 113 110 113 115 123 116 114 93 78 60 40 332
50 67 55 64 68 85 93 84 62 78 94 93 93 103 73 120 131 133 134 133 136 132 111 127 137 149 137 138 131 118 112 103 112 118 126 127 117 118 108 86 76 17 323
69 74 72 76 71 69 69 85 93 69 81 100 124 131 134 145 141 144 144 144 142 130 132 151 152 145 140 138 140 141 132 125 126 130 124 109 121 104 126 83 23 330 329
249 62 129 114 104 112 102 100 108 121 119 117 124 130 138 141 140 141 144 132 128 70 113 143 150 143 148 145 143 137 132 144 155 139 133 128 129 137 147 168 178 318 333
218 224 191 157 160 146 139 143 144 148 144 146 161 132 156 147 150 158 158 149 163 168 174 173 152 156 158 144 142 154 165 163 143 144 129 131 148 162 148 144 205 261 280
204 180 190 187 171 173 168 164 162 165 160 173 176 164 154 154 167 176 162 170 184 165 163 153 169 165 149 153 159 155 144 152 152 146 141 143 151 170 154 178 248 322 353
200 190 198 186 187 186 178 184 184 183 188 189 195 180 182 181 188 192 183 184 186 178 176 174 172 165 162 162 160 154 153 150 149 151 154 158 162 161 146 107 345 328 319
195 195 192 202 185 189 196 197 195 198 201 197 188 190 197 203 198 197 191 188 180 175 171 172 171 169 165 163 161 155 149 151 156 164 157 146 147 133 124 60 327 299 298
198 198 197 199 200 183 187 200 207 212 210 208 202 195 198 206 209 199 192 179 166 157 158 166 158 154 149 146 149 152 155 164 168 160 147 146 148 141 147 228 261 289 295
196 199 197 193 190 197 204 206 214 222 226 220 210 207 205 208 206 193 173 160 151 152 159 153 155 151 142 140 145 151 141 133 130 138 132 139 148 156 194 214 263 273 283
193 193 195 191 189 195 197 204 205 207 212 216 214 210 207 205 200 170 144 147 152 155 151 146 146 150 151 153 155 151 137 124 128 133 143 148 164 172 188 233 258 273 270
188 190 189 182 188 194 197 196 205 200 204 209 213 204 195 187 176 161 158 159 156 148 149 147 152 154 155 158 154 139 143 151 155 164 152 169 178 190 208 241 252 257 277